sat.trackr.live / text

‹ back to catalog

STARLINK-37869

NORAD 69483 · 2026-131F

PAYLOAD ACTIVE UNKNOWN

§ Identity

Operator
Country
US
Launch date
2026-06-11
Launch site
AFWTR
Launch vehicle
Mass (kg)
RCS (m²)

Purposes: comms

External: N2YO · Heavens-Above · Gunter

§ Orbital elements

Epoch: 2026-09-20T00:49:52.756032Z

Period
93.91 min
Inclination
97.2841°
Eccentricity
0.0000873
Mean motion
15.33451911 rev/d
Perigee alt
464.9 km
Apogee alt
466.1 km
Semi-major
6,843.7 km
B*
8.7853e-4
RAAN
283.8711°
Arg perigee
71.1154°
Mean anomaly
289.0183°
Rev number
1,682

§ Raw data

STARLINK-378691 69483U 26131F   26263.03463838  .00028400  00000+0  87853-3 0  99942 69483  97.2841 283.8711 0000873  71.1154 289.0183 15.33451911 16821

JSON: /api/v1/satellites/69483 · /tle

For live sub-satellite position, see the globe view (requires WebGL).

§ Visibility from observer

Set your observer location to see the next 7 days of passes ≥ 10°. The values pass through the URL so the page stays shareable.

No JS? Fill the form by hand. The geolocation button needs JavaScript.